User: anonymous   Login
Location: Camp Creek
(33.9000°N, 111.8167°W)
Time: 21:29:11
(UTC-07:00)
Language:

Cosmos 1656 - Orbit

View from above orbital plane
View from above orbital plane
View from above satellite
View from above satellite

Ground track
Ground track

The orbit data is extracted from the following two-line orbital elements,

1 15755U 85042A   16207.77917250 -.00000070  00000-0 -10268-4 0  9996
2 15755  71.1130 330.9274 0036149 201.5547 158.4060 14.20397771614346
Epoch (UTC): 25 July 2016 18:42:00
Eccentricity: 0.0036149
inclination: 71.1130°
perigee height: 798 km
apogee height: 850 km
right ascension of ascending node: 330.9274°
argument of perigee: 201.5547°
revolutions per day: 14.20397771
mean anomaly at epoch: 158.4060°
orbit number at epoch: 61434

The dashed part of the orbit path shows where the satellite is in the earth's shadow,  

DLR